{"data":{"norad_id":59025,"intl_designator":"2024-038C","name":"STARLINK-31178","alt_names":[],"object_type":"PAYLOAD","status":"ACTIVE","operator":null,"country":"US","launch_date":"2024-02-25","launch_site_code":"AFETR","launch_vehicle":null,"mission":null,"orbit_class":"UNKNOWN","rcs_meters":null,"size_class":null,"mass_kg":null,"dimensions":null,"purposes":["comms"],"wikipedia_slug":null,"has_3d_model":false,"image_url":null,"decayed_at":null,"tle_current":{"epoch":"2026-09-20T00:02:01.595040Z","epoch_age_seconds":198734,"freshness":"STALE","line1":"1 59025U 24038C   26263.00140735 -.00000009  00000+0  92092-5 0  9993","line2":"2 59025  43.0035   9.8205 0000925 269.9045  90.1701 15.27575691144367","mean_motion":15.27575691,"eccentricity":9.25e-5,"inclination_deg":43.0035,"raan_deg":9.8205,"arg_perigee_deg":269.9045,"mean_anomaly_deg":90.1701,"bstar":9.2092e-6,"rev_number":14436,"period_min":94.267014622191,"perigee_km":482.42733785875,"apogee_km":483.69665967352,"semimajor_km":6861.1989987661,"source":"CELESTRAK","updated_at":"2026-09-21T09:00:34.028363Z"}}}